Time,TemperatureF,DewpointF,PressureIn,WindDirection,WindDirectionDegrees,WindSpeedMPH,WindSpeedGustMPH,Humidity,HourlyPrecipIn,Conditions,Clouds,dailyrainin,SoftwareType,DateUTC
2013-04-20 00:03:00,73.0,-99.9,30.11,South,174,4.0,8.0,-999,-99.99,,,-99.99,,2013-04-20 10:03:00,
2013-04-20 00:13:00,74.0,-99.9,30.11,East,92,1.0,3.0,-999,-99.99,,,-99.99,,2013-04-20 10:13:00,
2013-04-20 00:23:00,74.0,-99.9,30.11,ENE,61,3.0,4.0,-999,-99.99,,,-99.99,,2013-04-20 10:23:00,
2013-04-20 00:33:00,74.0,-99.9,30.11,NE,48,3.0,4.0,-999,-99.99,,,-99.99,,2013-04-20 10:33:00,
2013-04-20 00:42:00,75.0,-99.9,30.10,NE,56,1.0,5.0,-999,-99.99,,,-99.99,,2013-04-20 10:42:00,
2013-04-20 00:53:00,75.0,-99.9,30.10,ENE,57,2.0,4.0,-999,-99.99,,,-99.99,,2013-04-20 10:53:00,
2013-04-20 01:03:00,75.0,-99.9,30.09,NE,53,4.0,6.0,-999,-99.99,,,-99.99,,2013-04-20 11:03:00,
2013-04-20 01:12:00,75.0,-99.9,30.09,ENE,59,3.0,7.0,-999,-99.99,,,-99.99,,2013-04-20 11:12:00,
2013-04-20 01:23:00,75.0,-99.9,30.09,NE,49,3.0,6.0,-999,-99.99,,,-99.99,,2013-04-20 11:23:00,
2013-04-20 01:32:00,74.0,-99.9,30.09,NE,40,3.0,5.0,-999,-99.99,,,-99.99,,2013-04-20 11:32:00,
2013-04-20 01:42:00,74.0,-99.9,30.08,North,6,2.0,3.0,-999,-99.99,,,-99.99,,2013-04-20 11:42:00,
2013-04-20 01:53:00,74.0,-99.9,30.08,NNW,339,2.0,2.0,-999,-99.99,,,-99.99,,2013-04-20 11:53:00,
2013-04-20 02:02:00,74.0,-99.9,30.08,NNW,335,1.0,2.0,-999,-99.99,,,-99.99,,2013-04-20 12:02:00,
2013-04-20 02:11:00,74.0,-99.9,30.08,NW,322,2.0,2.0,-999,-99.99,,,-99.99,,2013-04-20 12:11:00,
2013-04-20 02:23:00,74.0,-99.9,30.08,NNW,329,2.0,2.0,-999,-99.99,,,-99.99,,2013-04-20 12:23:00,
2013-04-20 02:32:00,74.0,-99.9,30.07,NNW,334,2.0,3.0,-999,-99.99,,,-99.99,,2013-04-20 12:32:00,
2013-04-20 02:42:00,74.0,-99.9,30.07,North,356,3.0,4.0,-999,-99.99,,,-99.99,,2013-04-20 12:42:00,
2013-04-20 02:52:00,74.0,-99.9,30.06,NNE,19,2.0,4.0,-999,-99.99,,,-99.99,,2013-04-20 12:52:00,
2013-04-20 03:02:00,74.0,-99.9,30.06,North,354,1.0,2.0,-999,-99.99,,,-99.99,,2013-04-20 13:02:00,
2013-04-20 03:12:00,74.0,-99.9,30.06,North,356,3.0,5.0,-999,-99.99,,,-99.99,,2013-04-20 13:12:00,
2013-04-20 03:22:00,74.0,-99.9,30.06,NE,51,1.0,2.0,-999,-99.99,,,-99.99,,2013-04-20 13:22:00,
2013-04-20 03:32:00,74.0,-99.9,30.05,ENE,57,2.0,3.0,-999,-99.99,,,-99.99,,2013-04-20 13:32:00,
2013-04-20 03:42:00,74.0,-99.9,30.05,ENE,62,3.0,4.0,-999,-99.99,,,-99.99,,2013-04-20 13:42:00,
2013-04-20 03:52:00,74.0,-99.9,30.05,ENE,72,2.0,3.0,-999,-99.99,,,-99.99,,2013-04-20 13:52:00,
2013-04-20 04:02:00,73.0,-99.9,30.05,ENE,73,2.0,3.0,-999,-99.99,,,-99.99,,2013-04-20 14:02:00,
2013-04-20 04:11:00,73.0,-99.9,30.05,NNW,337,2.0,2.0,-999,-99.99,,,-99.99,,2013-04-20 14:11:00,
2013-04-20 04:22:00,73.0,-99.9,30.05,NNW,342,2.0,3.0,-999,-99.99,,,-99.99,,2013-04-20 14:22:00,
2013-04-20 04:32:00,74.0,-99.9,30.05,NNE,24,1.0,2.0,-999,-99.99,,,-99.99,,2013-04-20 14:32:00,
2013-04-20 04:42:00,74.0,-99.9,30.05,ESE,115,1.0,1.0,-999,-99.99,,,-99.99,,2013-04-20 14:42:00,
2013-04-20 04:52:00,73.0,-99.9,30.05,NE,47,0.0,2.0,-999,-99.99,,,-99.99,,2013-04-20 14:52:00,
2013-04-20 05:02:00,73.0,-99.9,30.05,ENE,75,-999.0,3.0,-999,-99.99,,,-99.99,,2013-04-20 15:02:00,
2013-04-20 05:12:00,73.0,-99.9,30.05,ENE,75,3.0,4.0,-999,-99.99,,,-99.99,,2013-04-20 15:12:00,
2013-04-20 05:22:00,73.0,-99.9,30.05,ENE,67,2.0,4.0,-999,-99.99,,,-99.99,,2013-04-20 15:22:00,
2013-04-20 05:34:00,73.0,-99.9,30.06,East,82,1.0,3.0,-999,-99.99,,,-99.99,,2013-04-20 15:34:00,
2013-04-20 05:43:00,73.0,-99.9,30.06,ENE,66,1.0,2.0,-999,-99.99,,,-99.99,,2013-04-20 15:43:00,
2013-04-20 05:53:00,73.0,-99.9,30.06,ENE,60,2.0,2.0,-999,-99.99,,,-99.99,,2013-04-20 15:53:00,
2013-04-20 06:03:00,73.0,-99.9,30.06,ENE,59,2.0,2.0,-999,-99.99,,,-99.99,,2013-04-20 16:03:00,
2013-04-20 06:12:00,73.0,-99.9,30.06,East,82,1.0,2.0,-999,-99.99,,,-99.99,,2013-04-20 16:12:00,
2013-04-20 06:23:00,73.0,-99.9,30.07,ENE,60,2.0,4.0,-999,-99.99,,,-99.99,,2013-04-20 16:23:00,
2013-04-20 06:33:00,73.0,-99.9,30.07,NE,49,3.0,4.0,-999,-99.99,,,-99.99,,2013-04-20 16:33:00,
2013-04-20 06:42:00,73.0,-99.9,30.07,ENE,71,3.0,4.0,-999,-99.99,,,-99.99,,2013-04-20 16:42:00,
2013-04-20 06:53:00,73.0,-99.9,30.07,ENE,58,2.0,4.0,-999,-99.99,,,-99.99,,2013-04-20 16:53:00,
2013-04-20 07:03:00,73.0,-99.9,30.07,East,98,1.0,3.0,-999,-99.99,,,-99.99,,2013-04-20 17:03:00,
2013-04-20 07:12:00,73.0,-99.9,30.08,ESE,104,0.0,2.0,-999,-99.99,,,-99.99,,2013-04-20 17:12:00,
2013-04-20 07:23:00,73.0,-99.9,30.08,SW,229,1.0,2.0,-999,-99.99,,,-99.99,,2013-04-20 17:23:00,
2013-04-20 07:33:00,73.0,-99.9,30.08,ENE,65,-999.0,5.0,-999,-99.99,,,-99.99,,2013-04-20 17:33:00,
2013-04-20 07:42:00,75.0,-99.9,30.08,NE,44,2.0,4.0,-999,-99.99,,,-99.99,,2013-04-20 17:42:00,
2013-04-20 07:52:00,75.0,-99.9,30.08,ESE,104,2.0,3.0,-999,-99.99,,,-99.99,,2013-04-20 17:52:00,
2013-04-20 08:02:00,76.0,-99.9,30.09,NNE,33,0.0,2.0,-999,-99.99,,,-99.99,,2013-04-20 18:02:00,
2013-04-20 08:13:00,76.0,-99.9,30.09,South,184,3.0,4.0,-999,-99.99,,,-99.99,,2013-04-20 18:13:00,
2013-04-20 08:22:00,76.0,-99.9,30.09,South,172,3.0,4.0,-999,-99.99,,,-99.99,,2013-04-20 18:22:00,
2013-04-20 08:32:00,76.0,-99.9,30.09,South,184,4.0,6.0,-999,-99.99,,,-99.99,,2013-04-20 18:32:00,
2013-04-20 08:42:00,75.0,-99.9,30.09,SSW,196,6.0,8.0,-999,-99.99,,,-99.99,,2013-04-20 18:42:00,
2013-04-20 08:53:00,75.0,-99.9,30.09,SSW,209,4.0,6.0,-999,-99.99,,,-99.99,,2013-04-20 18:53:00,
2013-04-20 09:02:00,75.0,-99.9,30.10,SW,235,4.0,6.0,-999,-99.99,,,-99.99,,2013-04-20 19:02:00,
2013-04-20 09:11:00,75.0,-99.9,30.10,WSW,243,5.0,7.0,-999,-99.99,,,-99.99,,2013-04-20 19:11:00,
2013-04-20 09:22:00,75.0,-99.9,30.10,WSW,241,5.0,6.0,-999,-99.99,,,-99.99,,2013-04-20 19:22:00,
2013-04-20 09:32:00,75.0,-99.9,30.10,SW,234,5.0,6.0,-999,-99.99,,,-99.99,,2013-04-20 19:32:00,
2013-04-20 09:42:00,75.0,-99.9,30.10,SW,229,5.0,7.0,-999,-99.99,,,-99.99,,2013-04-20 19:42:00,
2013-04-20 09:52:00,76.0,-99.9,30.10,SW,230,5.0,8.0,-999,-99.99,,,-99.99,,2013-04-20 19:52:00,
2013-04-20 10:02:00,75.0,-99.9,30.10,WSW,241,8.0,9.0,-999,-99.99,,,-99.99,,2013-04-20 20:02:00,
2013-04-20 10:12:00,76.0,-99.9,30.10,SW,233,7.0,10.0,-999,-99.99,,,-99.99,,2013-04-20 20:12:00,
2013-04-20 10:22:00,76.0,-99.9,30.10,WSW,247,7.0,8.0,-999,-99.99,,,-99.99,,2013-04-20 20:22:00,
2013-04-20 10:32:00,76.0,-99.9,30.10,WSW,238,8.0,10.0,-999,-99.99,,,-99.99,,2013-04-20 20:32:00,
2013-04-20 10:42:00,76.0,-99.9,30.10,WSW,240,9.0,10.0,-999,-99.99,,,-99.99,,2013-04-20 20:42:00,
2013-04-20 10:52:00,77.0,-99.9,30.10,SSW,210,6.0,8.0,-999,-99.99,,,-99.99,,2013-04-20 20:52:00,
2013-04-20 11:02:00,77.0,-99.9,30.09,SW,216,8.0,11.0,-999,-99.99,,,-99.99,,2013-04-20 21:02:00,
2013-04-20 11:12:00,78.0,-99.9,30.09,SW,216,6.0,11.0,-999,-99.99,,,-99.99,,2013-04-20 21:12:00,
2013-04-20 11:22:00,77.0,-99.9,30.09,SW,217,6.0,10.0,-999,-99.99,,,-99.99,,2013-04-20 21:22:00,
2013-04-20 11:33:00,77.0,-99.9,30.09,SSW,213,7.0,10.0,-999,-99.99,,,-99.99,,2013-04-20 21:33:00,
2013-04-20 11:43:00,78.0,-99.9,30.09,SSW,208,7.0,13.0,-999,-99.99,,,-99.99,,2013-04-20 21:43:00,
2013-04-20 11:53:00,79.0,-99.9,30.09,SSW,192,6.0,13.0,-999,-99.99,,,-99.99,,2013-04-20 21:53:00,
2013-04-20 12:03:00,79.0,-99.9,30.09,SSW,205,8.0,13.0,-999,-99.99,,,-99.99,,2013-04-20 22:03:00,
2013-04-20 12:13:00,79.0,-99.9,30.09,SSW,202,8.0,12.0,-999,-99.99,,,-99.99,,2013-04-20 22:13:00,
2013-04-20 12:23:00,79.0,-99.9,30.09,SSW,200,8.0,12.0,-999,-99.99,,,-99.99,,2013-04-20 22:23:00,
2013-04-20 12:33:00,78.0,-99.9,30.08,SSW,204,4.0,12.0,-999,-99.99,,,-99.99,,2013-04-20 22:33:00,
2013-04-20 12:42:00,79.0,-99.9,30.07,SSW,198,6.0,14.0,-999,-99.99,,,-99.99,,2013-04-20 22:42:00,
2013-04-20 12:53:00,78.0,-99.9,30.07,SSW,205,5.0,10.0,-999,-99.99,,,-99.99,,2013-04-20 22:53:00,
2013-04-20 13:02:00,79.0,-99.9,30.07,South,189,6.0,11.0,-999,-99.99,,,-99.99,,2013-04-20 23:02:00,
2013-04-20 13:12:00,80.0,-99.9,30.07,SSW,192,6.0,12.0,-999,-99.99,,,-99.99,,2013-04-20 23:12:00,
2013-04-20 13:22:00,79.0,-99.9,30.06,South,189,9.0,12.0,-999,-99.99,,,-99.99,,2013-04-20 23:22:00,
2013-04-20 13:32:00,80.0,-99.9,30.06,SSW,192,7.0,11.0,-999,-99.99,,,-99.99,,2013-04-20 23:32:00,
2013-04-20 13:42:00,80.0,-99.9,30.05,SSW,194,6.0,12.0,-999,-99.99,,,-99.99,,2013-04-20 23:42:00,
2013-04-20 13:53:00,79.0,-99.9,30.05,SSW,203,9.0,12.0,-999,-99.99,,,-99.99,,2013-04-20 23:53:00,
2013-04-20 14:01:00,79.0,-99.9,30.05,South,186,8.0,11.0,-999,-99.99,,,-99.99,,2013-04-21 00:01:00,
2013-04-20 14:12:00,78.0,-99.9,30.04,SW,220,6.0,10.0,-999,-99.99,,,-99.99,,2013-04-21 00:12:00,
2013-04-20 14:22:00,78.0,-99.9,30.04,SSW,197,8.0,12.0,-999,-99.99,,,-99.99,,2013-04-21 00:22:00,
2013-04-20 14:32:00,78.0,-99.9,30.04,SW,214,8.0,13.0,-999,-99.99,,,-99.99,,2013-04-21 00:32:00,
2013-04-20 14:42:00,80.0,-99.9,30.03,South,181,5.0,11.0,-999,-99.99,,,-99.99,,2013-04-21 00:42:00,
2013-04-20 14:52:00,78.0,-99.9,30.03,SW,219,7.0,11.0,-999,-99.99,,,-99.99,,2013-04-21 00:52:00,
2013-04-20 15:01:00,80.0,-99.9,30.03,South,180,5.0,10.0,-999,-99.99,,,-99.99,,2013-04-21 01:01:00,
2013-04-20 15:12:00,80.0,-99.9,30.03,SSW,194,6.0,11.0,-999,-99.99,,,-99.99,,2013-04-21 01:12:00,
2013-04-20 15:22:00,79.0,-99.9,30.02,SSW,208,9.0,13.0,-999,-99.99,,,-99.99,,2013-04-21 01:22:00,
2013-04-20 15:32:00,79.0,-99.9,30.03,South,191,9.0,12.0,-999,-99.99,,,-99.99,,2013-04-21 01:32:00,
2013-04-20 15:42:00,79.0,-99.9,30.03,SSW,193,8.0,11.0,-999,-99.99,,,-99.99,,2013-04-21 01:42:00,
2013-04-20 15:52:00,79.0,-99.9,30.03,SSW,200,7.0,11.0,-999,-99.99,,,-99.99,,2013-04-21 01:52:00,
2013-04-20 16:02:00,79.0,-99.9,30.03,South,170,7.0,11.0,-999,-99.99,,,-99.99,,2013-04-21 02:02:00,
2013-04-20 16:11:00,78.0,-99.9,30.03,South,187,9.0,13.0,-999,-99.99,,,-99.99,,2013-04-21 02:11:00,
2013-04-20 16:22:00,78.0,-99.9,30.03,SSW,192,8.0,13.0,-999,-99.99,,,-99.99,,2013-04-21 02:22:00,
2013-04-20 16:32:00,79.0,-99.9,30.03,SSE,164,6.0,10.0,-999,-99.99,,,-99.99,,2013-04-21 02:32:00,
2013-04-20 16:42:00,78.0,-99.9,30.03,SSW,199,9.0,12.0,-999,-99.99,,,-99.99,,2013-04-21 02:42:00,
2013-04-20 16:52:00,78.0,-99.9,30.03,SSW,196,7.0,14.0,-999,-99.99,,,-99.99,,2013-04-21 02:52:00,
2013-04-20 17:02:00,78.0,-99.9,30.03,SSW,197,6.0,10.0,-999,-99.99,,,-99.99,,2013-04-21 03:02:00,
2013-04-20 17:11:00,78.0,-99.9,30.03,SSW,196,8.0,11.0,-999,-99.99,,,-99.99,,2013-04-21 03:11:00,
2013-04-20 17:22:00,78.0,-99.9,30.03,SSW,203,6.0,10.0,-999,-99.99,,,-99.99,,2013-04-21 03:22:00,
2013-04-20 17:33:00,78.0,-99.9,30.03,SSW,207,5.0,9.0,-999,-99.99,,,-99.99,,2013-04-21 03:33:00,
2013-04-20 17:43:00,77.0,-99.9,30.04,SW,227,5.0,7.0,-999,-99.99,,,-99.99,,2013-04-21 03:43:00,
2013-04-20 17:53:00,77.0,-99.9,30.03,SSW,211,6.0,9.0,-999,-99.99,,,-99.99,,2013-04-21 03:53:00,
2013-04-20 18:03:00,77.0,-99.9,30.03,SW,222,6.0,7.0,-999,-99.99,,,-99.99,,2013-04-21 04:03:00,
2013-04-20 18:13:00,77.0,-99.9,30.03,SW,215,5.0,7.0,-999,-99.99,,,-99.99,,2013-04-21 04:13:00,
2013-04-20 18:23:00,77.0,-99.9,30.03,SW,220,5.0,9.0,-999,-99.99,,,-99.99,,2013-04-21 04:23:00,
2013-04-20 18:33:00,77.0,-99.9,30.03,WSW,237,6.0,7.0,-999,-99.99,,,-99.99,,2013-04-21 04:33:00,
2013-04-20 18:43:00,76.0,-99.9,30.03,SW,221,5.0,7.0,-999,-99.99,,,-99.99,,2013-04-21 04:43:00,
2013-04-20 18:53:00,76.0,-99.9,30.03,SW,227,4.0,6.0,-999,-99.99,,,-99.99,,2013-04-21 04:53:00,
2013-04-20 19:02:00,76.0,-99.9,30.04,SW,230,5.0,6.0,-999,-99.99,,,-99.99,,2013-04-21 05:02:00,
2013-04-20 19:12:00,76.0,-99.9,30.04,SW,235,4.0,5.0,-999,-99.99,,,-99.99,,2013-04-21 05:12:00,
2013-04-20 19:22:00,76.0,-99.9,30.04,SW,217,4.0,6.0,-999,-99.99,,,-99.99,,2013-04-21 05:22:00,
2013-04-20 19:32:00,76.0,-99.9,30.04,SSW,211,5.0,6.0,-999,-99.99,,,-99.99,,2013-04-21 05:32:00,
2013-04-20 19:43:00,76.0,-99.9,30.05,SW,224,4.0,7.0,-999,-99.99,,,-99.99,,2013-04-21 05:43:00,
2013-04-20 19:52:00,76.0,-99.9,30.05,SW,226,4.0,6.0,-999,-99.99,,,-99.99,,2013-04-21 05:52:00,
2013-04-20 20:01:00,76.0,-99.9,30.05,SW,216,4.0,5.0,-999,-99.99,,,-99.99,,2013-04-21 06:01:00,
2013-04-20 20:12:00,76.0,-99.9,30.06,SW,219,4.0,5.0,-999,-99.99,,,-99.99,,2013-04-21 06:12:00,
2013-04-20 20:22:00,76.0,-99.9,30.06,SW,228,5.0,6.0,-999,-99.99,,,-99.99,,2013-04-21 06:22:00,
2013-04-20 20:32:00,76.0,-99.9,30.06,SW,235,5.0,5.0,-999,-99.99,,,-99.99,,2013-04-21 06:32:00,
2013-04-20 20:42:00,76.0,-99.9,30.07,SW,222,4.0,5.0,-999,-99.99,,,-99.99,,2013-04-21 06:42:00,
2013-04-20 20:52:00,76.0,-99.9,30.07,SW,218,3.0,4.0,-999,-99.99,,,-99.99,,2013-04-21 06:52:00,
2013-04-20 21:02:00,76.0,-99.9,30.07,SW,226,3.0,4.0,-999,-99.99,,,-99.99,,2013-04-21 07:02:00,
2013-04-20 21:12:00,76.0,-99.9,30.07,SW,228,3.0,4.0,-999,-99.99,,,-99.99,,2013-04-21 07:12:00,
2013-04-20 21:22:00,76.0,-99.9,30.08,SSW,212,2.0,4.0,-999,-99.99,,,-99.99,,2013-04-21 07:22:00,
2013-04-20 21:32:00,76.0,-99.9,30.08,SW,226,3.0,4.0,-999,-99.99,,,-99.99,,2013-04-21 07:32:00,
2013-04-20 21:42:00,76.0,-99.9,30.08,SW,228,2.0,4.0,-999,-99.99,,,-99.99,,2013-04-21 07:42:00,
2013-04-20 21:52:00,76.0,-99.9,30.08,SW,217,3.0,4.0,-999,-99.99,,,-99.99,,2013-04-21 07:52:00,
2013-04-20 22:02:00,76.0,-99.9,30.09,WSW,240,2.0,4.0,-999,-99.99,,,-99.99,,2013-04-21 08:02:00,
2013-04-20 22:12:00,76.0,-99.9,30.09,SW,231,3.0,3.0,-999,-99.99,,,-99.99,,2013-04-21 08:12:00,
2013-04-20 22:22:00,76.0,-99.9,30.09,SSW,193,2.0,4.0,-999,-99.99,,,-99.99,,2013-04-21 08:22:00,
2013-04-20 22:32:00,76.0,-99.9,30.09,SW,222,1.0,3.0,-999,-99.99,,,-99.99,,2013-04-21 08:32:00,
2013-04-20 22:42:00,76.0,-99.9,30.09,SW,218,2.0,3.0,-999,-99.99,,,-99.99,,2013-04-21 08:42:00,
2013-04-20 22:52:00,76.0,-99.9,30.09,SW,221,2.0,2.0,-999,-99.99,,,-99.99,,2013-04-21 08:52:00,
2013-04-20 23:02:00,76.0,-99.9,30.09,West,280,2.0,3.0,-999,-99.99,,,-99.99,,2013-04-21 09:02:00,
2013-04-20 23:12:00,76.0,-99.9,30.09,WNW,294,2.0,2.0,-999,-99.99,,,-99.99,,2013-04-21 09:12:00,
2013-04-20 23:22:00,75.0,-99.9,30.09,West,275,1.0,3.0,-999,-99.99,,,-99.99,,2013-04-21 09:22:00,
2013-04-20 23:33:00,75.0,-99.9,30.08,North,350,2.0,3.0,-999,-99.99,,,-99.99,,2013-04-21 09:33:00,
2013-04-20 23:43:00,75.0,-99.9,30.08,NNE,33,2.0,3.0,-999,-99.99,,,-99.99,,2013-04-21 09:43:00,
2013-04-20 23:53:00,75.0,-99.9,30.07,NE,54,2.0,2.0,-999,-99.99,,,-99.99,,2013-04-21 09:53:00,